Regional Weather Roundup
Issued by NWS

Home | Current Version | Previous Version | Text Only | Print | Product List | Glossary Off
Versions: 1 2 3 4 5 6 7 8 9 10 11 12 13 14 15 16 17 18 19 20 21 22 23 24 25 26 27 28 29 30 31 32 33 34 35 36 37 38 39 40 41 42 43 44 45 46 47 48 49 50

000
ASUS43 KMPX 260710
RWRMN
WEATHER ROUNDUP FOR MINNESOTA
NATIONAL WEATHER SERVICE TWIN CITIES/CHANHASSEN MN
200 AM CDT TUE SEP 26 2017


NOTE: "FAIR" INDICATES FEW OR NO CLOUDS BELOW 12,000 FEET WITH NO
SIGNIFICANT WEATHER AND/OR OBSTRUCTIONS TO VISIBILITY. N/A MEANS
CURRENT SKY AND/OR WEATHER CONDITIONS ARE NOT AVAILABLE.

MNZ060>063-068>070-260800-
   Twin Cities Metro

CITY           SKY/WX    TMP DP  RH WIND       PRES   REMARKS
TWIN CITIES    LGT RAIN  58  58 100 N5        29.93F
ST PAUL        LGT RAIN  58  58 100 N5        29.94F
CRYSTAL        LGT RAIN  57  53  86 NE5       29.93F
BLAINE         DRIZZLE   57  57 100 NE5       29.94F
LAKEVILLE      DRIZZLE   57  57 100 CALM      29.94S
EDEN PRAIRIE   LGT RAIN  58  56  93 NE5       29.92F
SOUTH ST PAUL  DRIZZLE   59  58  97 NE3       29.93F
LAKE ELMO      DRIZZLE   59  57  94 N3        29.95S
$$
MNZ001>005-007-008-013>017-022>024-027-028-260800-
   Northwest Minnesota

CITY           SKY/WX    TMP DP  RH WIND       PRES   REMARKS
BEMIDJI        RAIN      49  49  99 N5        30.03F
HALLOCK          N/A     50  48  93 N6        30.10F
ROSEAU           N/A     50  45  81 N3        30.10S HAZE
WARROAD        HVY RAIN  52  48  87 E9        30.09S
THIEF RVR FALL CLOUDY    48  48 100 N7        30.09S
CROOKSTON      CLOUDY    50  48  93 N8        30.09R
FOSSTON        RAIN      48  46  93 N7        30.05F
DETROIT LAKES  RAIN      52  50  93 CALM      30.04S
MOORHEAD       DRIZZLE   50  48  93 N8        30.07R
PARK RAPIDS    LGT RAIN  52  49  89 N7        30.01S
MAHNOMEN       RAIN      49  49  99 N6        30.04S
$$
MNZ006-009>011-018-025>026-260800-
   North Central Minnesota

CITY           SKY/WX    TMP DP  RH WIND       PRES   REMARKS
BAUDETTE       CLOUDY    50  49  96 N7        30.08F
FLAG ISLAND    CLOUDY    52  46  82 E8        30.09S
INTL FALLS     CLOUDY    51  47  86 NE6       30.06S
WASKISH        CLOUDY    50  48  93 NE5       30.06F
BIG FORK       LGT RAIN  52  50  93 N3        30.03S
LONGVILLE      DRIZZLE   52  52 100 N5        30.00F
GRAND RAPIDS   LGT RAIN  52  51  97 N5        30.02F
CRANE LAKE     CLOUDY    52  48  87 CALM      30.06S
ORR            CLOUDY    52  46  82 CALM      30.01F
WALKER         DRIZZLE   50  49  97 N7        30.01F
$$
MNZ012-019>021-037-260800-
   Northeast Minnesota

CITY           SKY/WX    TMP DP  RH WIND       PRES   REMARKS
DULUTH         LGT RAIN  56  56 100 E15G22    29.96F FOG
ELY            RAIN      52  52 100 NE7       30.02F
HIBBING        LGT RAIN  52  51  97 N8        30.00S FOG
EVELETH        DRIZZLE   53  51  95 NE5       30.00F
GRAND MARAIS     N/A     56  50  80 VRB7      30.01S
$$
MNZ029>031-032-039>041-046>048-054>057-064-260800-
   West Central Minnesota

CITY           SKY/WX    TMP DP  RH WIND       PRES   REMARKS
FERGUS FALLS   RAIN      52  52 100 NW6       30.04S
WHEATON        RAIN      50  48  93 NW8       30.06S
ALEXANDRIA     LGT RAIN  53  53 100 N7        30.01S FOG
ELBOW LAKE     LGT RAIN  52  52 100 N5        30.03R
WADENA         DRIZZLE   52  52 100 N6        30.01S
GLENWOOD       RAIN      52  52 100 N7        30.00R
APPLETON       DRIZZLE   54  52  94 NW5       30.01R
BENSON         HVY RAIN  54  52  94 N7        30.02R
ORTONVILLE     RAIN      52  48  87 N9        30.03R
MADISON        DRIZZLE   54  54 100 NW12      30.02S
WILLMAR        LGT RAIN  55  55 100 N5        29.99R
$$
MNZ033>034-036-042>043-049>051-058-059-260800-
   Central Minnesota

CITY           SKY/WX    TMP DP  RH WIND       PRES   REMARKS
ST CLOUD       LGT RAIN  55  55 100 N3        29.96S
SAUK CENTRE    RAIN      53  52  98 N7        29.98F
PAYNESVILLE    DRIZZLE   54  54  99 N5        29.97S
AITKIN         RAIN      52  50  93 N7        29.96F
PINE RIVER     DRIZZLE   50  48  93 N5        30.03S
BRAINERD       LGT RAIN  53  52  96 N9        29.98F
LITTLE FALLS   DRIZZLE   54  50  87 N5        29.98S
LITCHFIELD     DRIZZLE   55  55 100 N3        29.97R
BUFFALO        DRIZZLE   55  53  92 N3        29.96R
MAPLE LAKE     DRIZZLE   56  55  98 N3        29.97R
HUTCHINSON     LGT RAIN  56  55  97 N3        29.97R
$$
MNZ037-044-045-052-053-260800-
   East Central Minnesota

CITY           SKY/WX    TMP DP  RH WIND       PRES   REMARKS
PRINCETON      LGT RAIN  55  55 100 NE3       29.95F
MORA           LGT RAIN  52  52 100 CALM      29.97S
RUSH CITY      LGT RAIN  56  55  96 CALM      29.95S
MOOSE LAKE     RAIN      55  54  94 N5        29.93F
HINCKLEY       DRIZZLE   55  55 100 N3        29.95S
CLOQUET        LGT RAIN  55  54  94 CALM      29.96F
MCGREGOR       CLOUDY    54  52  94 N6        29.98S
$$
MNZ071>073-080-081-089-090-097-098-260800-
   Southwest Minnesota

CITY           SKY/WX    TMP DP  RH WIND       PRES   REMARKS
MONTEVIDEO     RAIN      54  52  94 N8        30.01R
GRANITE FALLS  RAIN      55  54  97 NW9       30.01R
CANBY          RAIN      51  50  97 W9        30.03S
MARSHALL       LGT RAIN  52  51  97 NW9       30.00R
REDWOOD FALLS  LGT RAIN  55  53  93 NW5       29.97S FOG
OLIVIA         LGT RAIN  54  52  94 NW5       29.97S
PIPESTONE      DRIZZLE   52  50  93 N9        30.01R
WORTHINGTON    LGT RAIN  53  52  96 NW10      29.98S FOG
JACKSON        LGT RAIN  55  55 100 CALM      29.97S
TRACY          DRIZZLE   53  53 100 NW9       29.99S
SLAYTON        RAIN      51  44  77 NW9       30.00S
$$
MNZ065>067-074>077-082>085-091>093-260800-
   South Central Minnesota

CITY           SKY/WX    TMP DP  RH WIND       PRES   REMARKS
MANKATO        LGT RAIN  57  56  96 N3        29.96
NEW ULM        LGT RAIN  55  55 100 CALM      29.96R
ST JAMES       LGT RAIN  55  55 100 CALM      29.96F
FAIRMONT       RAIN      57  56  96 N5        29.96R
FARIBAULT      DRIZZLE   59  57  94 CALM      29.94S
OWATONNA       RAIN      59  57  94 CALM      29.94F
WASECA         DRIZZLE   55  55 100 E3        29.95S
ALBERT LEA     LGT RAIN  63  63 100 CALM      29.94S
$$
MNZ078>079-086>088-094>096-260800-
   Southeast Minnesota

CITY           SKY/WX    TMP DP  RH WIND       PRES   REMARKS
ROCHESTER      FOG       62  62 100 CALM      29.94S VSB 3/4
RED WING       DRIZZLE   61  59  94 CALM      29.91F
STANTON        LGT RAIN  60  57  92 CALM      29.93S
DODGE CENTER   FOG       59  57  94 CALM      29.94F VSB 1/2
WINONA         CLOUDY    66  64  94 CALM      29.92S
AUSTIN         FOG       63  61  94 CALM      29.96F VSB 1
PRESTON        FOG       64  62  96 CALM      29.94R VSB 1/4
$$
ABBREVIATIONS USED IN REMARKS
   TC - TEMPERATURES IN CELSIUS
  WCI - WIND CHILL INDEX
   HX - HEAT INDEX
  VSB - VISIBILITY
$$




USA.gov is the U.S. government's official web portal to all federal, state and local government web resources and services.